Showing default

HOKUSHIN1, 69648

Orbit data source: Space-Track

HOKUSHIN1, 69648 is a payload satellite owned by Tohoku (CIS) in LEO that was delivered to the ISS. Payload-class satellites include a variety of spacecraft equipped with specific instruments for various scientific and technological missions. These include communications satellites like Starlink; space stations such as the ISS; scientific satellites like the Hubble; Earth observation satellites from companies like Planet Labs, Umbra, and HawkEye 360; GPS; miniature CubeSats for education and research; and military/defense satellites.

Loading next visibility...
Identifier
69648, 1998-067YH
Orbit
LEO
Country
Flag of CISCIS
Related business
Manufacturer
Tohoku
Mission
Operational spacecraft
Bus & Motor
CUBESAT 3U, Unknown motor
Mass
4 kg wet, 4 kg dry
Launch date (UTC)
1998-11-20 (28 years ago)
Launch vehicle
FALCON 9
Launch site
Tyuratam Missile And Space Complex (TTMTR)
Object type
Payload
Rocket body
Debris
Shape & HBR
BOX, 0.1 m
Radar Cross Section
Medium (>0.1 m² and <1 m²)

Expand to show TLE details & history
Last TLE update: 12 hours ago

TLE from 12 hours ago
0 HOKUSHIN1
1 69648U 98067YH  26249.40749871  .00017150  00000-0  27262-3 0  9992
2 69648  51.6308 256.6869 0005704 133.0023 227.1446 15.53408612 12260
Epoch: 2026-09-06T09:46Z
TLE epoch observation values (Epoch: 2026-09-06T09:46:47.888Z)
Latitude
-0.00003°
Longitude
124.48429°
Altitude
410.157 km
Speed
7.665 km/s
True Right ascension
17h 06m 44s
True Declination
0° 00' 00"
Sunlit
Object was in daylight at epoch
Visualization orbit readout
Latitude
Unknown
Longitude
Unknown
Altitude
Unknown
Speed
Unknown
Apparent Right ascension
Unknown
Apparent Declination
Unknown
Sunlit
N/A
Visualization observer readout
Local Sidereal Time
13:36:56
Azimuth
Unknown
Elevation
Unknown
Doppler factor
Unknown
Orbital elements
Apogee altitude
411.163 km
Perigee altitude
403.422 km
Semi-major axis
6,785.43 km
Eccentricity
0.00057
Inclination
51.6308°
RAAN
256.6869°
Arg. of periapsis
133.0023°
True anomaly
227.09671°
Mean anomaly
227.1446°
Eccentric anomaly
227.12065°
Mean motion
3.88309 °/min
Orbital period
92.71 mins
BSTAR
0.00027262
Loading maneuver chart data...
Computing Atmospheric mass density...
Loading historical data...
Loading historical data...
Loading historical data...
Loading historical data...
Loading historical data...
Loading historical data...
Loading historical data...

Documentation

Showing up to 5 results
|